Regional Weather Roundup
Issued by NWS Little Rock, AR

Home | Current Version | Previous Version | Graphics & Text | Print | Product List | Glossary On
Versions: 1 2 3 4 5 6 7 8 9 10 11 12 13 14 15 16 17 18 19 20 21 22 23 24 25 26 27 28
000
ASUS44 KLZK 282105
RWRLZK

WEATHER ROUNDUP FOR ARKANSAS
NATIONAL WEATHER SERVICE LITTLE ROCK AR
400 PM CDT SUN AUG 28 2016

NOTE: "FAIR" INDICATES FEW OR NO CLOUDS BELOW 12,000 FEET WITH NO
SIGNIFICANT WEATHER AND/OR OBSTRUCTIONS TO VISIBILITY.

ARZ001-003-010-029-282200-
NORTHWEST ARKANSAS

CITY           SKY/WX    TMP DP  RH WIND       PRES   REMARKS
FAYETTEVILLE   PTSUNNY   79  70  74 VRB3      30.10S
FORT SMITH     PTSUNNY   89  67  47 E8        30.03F THUNDER HX  92
HARRISON       MOSUNNY   85  70  60 E9        30.10F HX  89
BENTONVILLE    CLOUDY    90  64  43 E3        30.09F HX  91
ROGERS         PTSUNNY   88  67  49 E7        30.10F HX  91
SILOAM SPGS    MOSUNNY   90  64  43 SE8       30.09F HX  91
HIGHFILL       PTSUNNY   90  68  48 SE13      30.08F HX  94
SPRINGDALE     PTSUNNY   81  70  69 S10G18    30.12F
$$

ARZ004-005-016-282200-
NORTH CENTRAL ARKANSAS

CITY           SKY/WX    TMP DP  RH WIND       PRES   REMARKS
BATESVILLE     MOSUNNY   91  73  55 E8        30.05F HX 100
FLIPPIN        MOSUNNY   90  68  48 E7        30.05F HX  93
MTN HOME       SUNNY     89  71  55 SE8       30.07F HX  95
$$

ARZ040-041-282200-
WEST CENTRAL ARKANSAS

CITY           SKY/WX    TMP DP  RH WIND       PRES   REMARKS
MENA           CLOUDY    86  73  66 N5        30.07F HX  93
MOUNT IDA      LGT RAIN  84  74  71 CALM      30.03F HX  91
$$

ARZ009-017-025-026-028-282200-
NORTHEAST ARKANSAS

CITY           SKY/WX    TMP DP  RH WIND       PRES   REMARKS
JONESBORO      SUNNY     91  73  55 E12       30.03F HX  99
WALNUT RIDGE   MOSUNNY   91  72  52 E10       30.04F HX  98
BLYTHEVILLE    SUNNY     92  76  59 E6        30.05F HX 104
$$

ARZ022-023-033-042-044-282200-
CENTRAL ARKANSAS

CITY           SKY/WX    TMP DP  RH WIND       PRES   REMARKS
LITTLE ROCK    PTSUNNY   94  71  47 E8        30.01F HX 101
N LITTLE ROCK    N/A     92  74  55 E9        30.00F HX 101
JACKSONVILLE   MOSUNNY   90  74  59 CALM      30.02F HX 100
SEARCY         LGT RAIN  80  76  87 NW6       30.05F HX  86
HOT SPRINGS    MOSUNNY   91  71  51 E9        30.02F HX  97
RUSSELLVILLE   PTSUNNY   89  72  56 E5        30.03F HX  96
$$

ARZ036-282200-
EAST ARKANSAS

CITY           SKY/WX    TMP DP  RH WIND       PRES   REMARKS
WEST MEMPHIS   CLOUDY    86  73  65 N9        30.02F HX  93
$$

ARZ050-053-066-070-073-282200-
SOUTHWEST ARKANSAS

CITY           SKY/WX    TMP DP  RH WIND       PRES   REMARKS
ARKADELPHIA    FAIR      90  77  65 VRB3      30.00F HX 103
TEXARKANA      CLOUDY    79  70  74 CALM      30.02S THUNDER
EL DORADO      LGT RAIN  77  74  90 CALM      30.00F
DE QUEEN       MOSUNNY   88  76  67 NE3       29.98F HX  99
$$

ARZ056-057-069-282200-
SOUTHEAST ARKANSAS

CITY           SKY/WX    TMP DP  RH WIND       PRES   REMARKS
PINE BLUFF     SUNNY     93  67  42 E9        30.01F HX  96
STUTTGART      SUNNY     93  70  46 E8        30.02F HX  99
MONTICELLO     MOSUNNY   96  70  42 E9        30.00F HX 102

$$






USA.gov is the U.S. government's official web portal to all federal, state and local government web resources and services.